This is the latest recevied weather packets stored in our database for station/object WZ8H. If no packets are shown the sender has not sent any weather packets the latest 10 day(s).
| Time | Temp. | Humidity | Pressure | Rain* | Wind** | Luminosity | Snow |
|---|---|---|---|---|---|---|---|
| 1778073557 | 9.44° C | 86% | 1010 hPa | 0 mm | - | 225 W/m² | - |
| 1778073257 | 9.44° C | 89% | 1009.9 hPa | 0 mm | - | 221 W/m² | - |
| 1778072959 | 9.44° C | 90% | 1009.8 hPa | 0 mm | - | 241 W/m² | - |
| 1778072635 | 9.44° C | 91% | 1009.6 hPa | 0 mm | - | 241 W/m² | - |
| 1778072335 | 9.44° C | 91% | 1009.6 hPa | 0 mm | - | 153 W/m² | - |
| 1778072039 | 8.89° C | 91% | 1009.5 hPa | 0 mm | - | 153 W/m² | - |
| 1778071736 | 8.89° C | 91% | 1009.4 hPa | 0 mm | - | 153 W/m² | - |
| 1778071431 | 8.89° C | 91% | 1009.3 hPa | 0 mm | - | 160 W/m² | - |
| 1778071127 | 8.33° C | 91% | 1009.3 hPa | 0 mm | - | 160 W/m² | - |
| 1778070827 | 8.33° C | 92% | 1009.2 hPa | 0 mm | - | 130 W/m² | - |
| 1778070517 | 8.33° C | 92% | 1009.2 hPa | 0 mm | - | 172 W/m² | - |
| 1778070193 | 8.33° C | 92% | 1009.1 hPa | 0 mm | - | 178 W/m² | - |
| 1778069869 | 7.78° C | 92% | 1009 hPa | 0 mm | - | 128 W/m² | - |
| 1778069541 | 7.78° C | 92% | 1008.9 hPa | 0 mm | - | 105 W/m² | - |
| 1778069240 | 7.78° C | 92% | 1008.9 hPa | 0 mm | - | 100 W/m² | - |
| 1778068940 | 7.78° C | 92% | 1008.8 hPa | 0 mm | - | 74 W/m² | - |
| 1778068610 | 7.78° C | 92% | 1008.8 hPa | 0 mm | - | 65 W/m² | - |
| 1778068284 | 7.22° C | 92% | 1009 hPa | 0.25 mm | - | 33 W/m² | - |
| 1778067957 | 7.22° C | 92% | 1009 hPa | 0.25 mm | - | 53 W/m² | - |
| 1778067657 | 7.22° C | 92% | 1009.1 hPa | 0.25 mm | - | 32 W/m² | - |
| 1778067343 | 7.22° C | 92% | 1009 hPa | 0.25 mm | - | 39 W/m² | - |
| 1778067044 | 7.22° C | 92% | 1009.1 hPa | 0.25 mm | - | 28 W/m² | - |
| 1778066741 | 7.22° C | 92% | 1009 hPa | 0.25 mm | - | 25 W/m² | - |
| 1778066420 | 7.22° C | 92% | 1008.9 hPa | 0.25 mm | - | 19 W/m² | - |
| 1778066091 | 7.22° C | 92% | 1008.7 hPa | 0.25 mm | - | 16 W/m² | - |
* Rain latest hour (hover to see other rain measurements)
** Current wind speed in m/s (hover to see current wind gust speed)